Location: Newark
(25.0000°N, 73.5000°E)
Time: 00:53:43
(UTC+00:00)

Courier 1B - All Passes

Search period start: 31 July 2021 00:00
Search period end: 10 August 2021 00:00
Orbit: 962 x 1209 km, 28.3° (Epoch: 30 July)

Date Brightness Start Highest point End Pass type
(mag) Time Alt. Az. Time Alt. Az. Time Alt. Az.
31 Jul - 10:26:09 10° S 10:29:38 13° SSE 10:33:08 10° ESE daylight
31 Jul - 12:16:14 10° SW 12:23:30 43° SSE 12:30:47 10° E daylight
31 Jul - 14:09:53 10° WSW 14:17:48 89° SSE 14:25:29 10° ENE visible
31 Jul - 16:04:45 10° W 16:12:30 69° N 16:19:54 10° E visible
31 Jul - 17:59:35 10° WNW 18:07:12 85° NNE 18:14:18 10° ESE visible
31 Jul - 19:54:25 10° W 20:01:17 46° SSW 20:07:45 10° SE night (unlit)
31 Jul - 21:51:34 10° WSW 21:54:50 14° SSW 21:58:02 10° S night (unlit)
01 Aug - 11:22:52 10° SSW 11:29:37 33° SSE 11:36:27 10° E daylight
01 Aug - 13:15:54 10° WSW 13:23:45 77° SSE 13:31:32 10° ENE daylight
01 Aug - 15:10:34 10° W 15:18:24 71° N 15:25:58 10° ENE visible
01 Aug - 17:05:28 10° WNW 17:13:11 77° N 17:20:28 10° E visible
01 Aug - 19:00:13 10° W 19:07:31 60° SSW 19:14:21 10° SE visible
01 Aug - 20:56:12 10° WSW 21:01:11 20° SSW 21:05:59 10° SSE night (unlit)
02 Aug - 10:29:49 10° SSW 10:35:46 25° SSE 10:41:50 10° E daylight
02 Aug - 12:22:04 10° WSW 12:29:46 64° SSE 12:37:30 10° E daylight
02 Aug - 14:16:24 10° W 14:24:18 76° N 14:32:01 10° ENE visible
02 Aug - 16:11:20 10° WNW 16:19:08 71° N 16:26:34 10° E visible
02 Aug - 18:06:04 10° WNW 18:13:40 74° SSW 18:20:47 10° ESE visible
02 Aug - 20:01:26 10° W 20:07:30 29° SSW 20:13:17 10° SSE night (unlit)
03 Aug - 09:37:14 10° S 09:41:58 18° SSE 09:46:46 10° ESE daylight
03 Aug - 11:28:23 10° SW 11:35:48 51° SSE 11:43:23 10° E daylight
03 Aug - 13:22:18 10° W 13:30:12 84° NNW 13:38:02 10° ENE daylight
03 Aug - 15:17:10 10° W 15:25:02 69° N 15:32:37 10° E visible
03 Aug - 17:11:57 10° WNW 17:19:43 87° SSW 17:27:04 10° ESE visible
03 Aug - 19:06:58 10° W 19:13:47 38° SSW 19:20:13 10° SE night (unlit)
03 Aug - 21:06:25 10° SW 21:07:20 10° SW 21:08:14 10° SSW night (unlit)
04 Aug - 08:45:46 10° SSE 08:48:10 12° SE 08:50:36 10° SE daylight
04 Aug - 10:34:56 10° SW 10:41:55 40° SSE 10:49:06 10° E daylight
04 Aug - 12:28:19 10° WSW 12:36:08 86° SSE 12:44:02 10° ENE daylight
04 Aug - 14:23:02 10° W 14:30:53 69° N 14:38:37 10° E visible
04 Aug - 16:17:50 10° WNW 16:25:42 83° NNE 16:33:13 10° E visible
04 Aug - 18:12:39 10° W 18:19:58 50° SSW 18:26:54 10° SE visible
04 Aug - 20:09:25 10° WSW 20:13:39 16° SSW 20:17:44 10° S night (unlit)
05 Aug - 09:41:45 10° SSW 09:48:05 30° SSE 09:54:38 10° E daylight
05 Aug - 11:34:27 10° WSW 11:42:06 74° SSE 11:49:58 10° ENE daylight
05 Aug - 13:28:55 10° W 13:36:45 72° N 13:44:35 10° ENE daylight
05 Aug - 15:23:44 10° WNW 15:31:37 76° N 15:39:17 10° E visible
05 Aug - 17:18:26 10° W 17:26:06 64° SSW 17:33:23 10° ESE visible
05 Aug - 19:14:15 10° W 19:19:55 23° SSW 19:25:22 10° SSE night (unlit)
06 Aug - 08:48:54 10° SSW 08:54:18 22° SSE 08:59:53 10° E daylight
06 Aug - 10:40:45 10° SW 10:48:09 61° SSE 10:55:51 10° E daylight
06 Aug - 12:34:51 10° W 12:42:37 77° N 12:50:32 10° ENE daylight
06 Aug - 14:29:38 10° W 14:37:30 71° N 14:45:16 10° E visible
06 Aug - 16:24:18 10° WNW 16:32:09 77° SSW 16:39:41 10° ESE visible
06 Aug - 18:19:34 10° W 18:26:10 32° SSW 18:32:29 10° SSE visible
07 Aug - 07:56:38 10° S 08:00:33 15° SE 08:04:35 10° ESE daylight
07 Aug - 09:47:14 10° SW 09:54:15 48° SSE 10:01:38 10° E daylight
07 Aug - 11:40:52 10° WSW 11:48:33 85° NNW 11:56:28 10° ENE daylight
07 Aug - 13:35:33 10° W 13:43:21 69° N 13:51:11 10° E daylight
07 Aug - 15:30:13 10° WNW 15:38:08 89° SSW 15:45:51 10° ESE visible
07 Aug - 17:25:08 10° W 17:32:21 42° SSW 17:39:16 10° SE visible
07 Aug - 19:23:09 10° WSW 19:26:03 12° SW 19:28:54 10° S night (unlit)
08 Aug - 08:53:55 10° SW 09:00:25 37° SSE 09:07:17 10° E daylight
08 Aug - 10:47:00 10° WSW 10:54:30 84° SSE 11:02:22 10° ENE daylight
08 Aug - 12:41:30 10° W 12:49:13 70° N 12:57:05 10° E daylight
08 Aug - 14:36:10 10° WNW 14:44:04 81° NNE 14:51:53 10° E visible
08 Aug - 16:30:52 10° W 16:38:28 54° SSW 16:45:50 10° SE visible
08 Aug - 18:27:17 10° WSW 18:32:18 19° SSW 18:37:10 10° S visible
09 Aug - 08:00:53 10° SSW 08:06:41 27° SSE 08:12:45 10° E daylight
09 Aug - 09:53:16 10° WSW 10:00:33 71° SSE 10:08:14 10° ENE daylight
09 Aug - 11:47:29 10° W 11:55:05 73° N 12:02:58 10° ENE daylight
09 Aug - 13:42:08 10° WNW 13:49:57 75° N 13:57:50 10° E daylight
09 Aug - 15:36:43 10° WNW 15:44:32 67° SSW 15:52:11 10° ESE visible
09 Aug - 17:32:18 10° W 17:38:30 26° SSW 17:44:31 10° SSE visible
